| time (UTC) | temp F | wind direction | speed MPH | gust MPH | rain 1hr in | rain 24hr in | rain mn in | humidity % | barometer mb |
| 20260505111723 | 59 | 47 | 2.0 | 6.0 | 0.00 | 0.18 | 0.18 | 96 | 1005.3 |
| 20260505111219 | 59 | 96 | 1.0 | 2.0 | 0.07 | 0.18 | 0.18 | 95 | 1005.6 |
| 20260505110715 | 60 | 224 | 3.0 | 7.0 | 0.00 | 0.17 | 0.17 | 95 | 1005.1 |
| 20260505110213 | 60 | 24 | 3.0 | 6.0 | 0.00 | 0.17 | 0.17 | 95 | 1004.6 |
| 20260505102148 | 60 | 166 | 0.0 | 2.0 | 0.00 | 0.17 | 0.17 | 94 | 1005.3 |
| 20260505101647 | 60 | 176 | 3.0 | 4.0 | 0.00 | 0.17 | 0.17 | 93 | 1005.3 |
| 20260505101143 | 60 | 32 | 0.0 | 2.0 | 0.05 | 0.17 | 0.17 | 92 | 1005.6 |
| 20260505100639 | 60 | 143 | 0.0 | 2.0 | 0.05 | 0.17 | 0.17 | 91 | 1005.6 |
| 20260505100136 | 60 | 71 | 4.0 | 6.0 | 0.00 | 0.16 | 0.16 | 91 | 1005.3 |
| 20260505095632 | 60 | 355 | 5.0 | 8.0 | 0.00 | 0.16 | 0.16 | 91 | 1005.1 |
| 20260505095130 | 61 | 317 | 2.0 | 3.0 | 0.00 | 0.16 | 0.16 | 88 | 1004.9 |
| 20260505094626 | 61 | 175 | 0.0 | 3.0 | 0.00 | 0.16 | 0.16 | 88 | 1004.5 |
| 20260505094122 | 61 | 157 | 0.0 | 4.0 | 0.00 | 0.16 | 0.16 | 88 | 1004.1 |
| 20260505093618 | 61 | 203 | 4.0 | 9.0 | 0.07 | 0.16 | 0.16 | 87 | 1004.2 |
| 20260505093116 | 62 | 141 | 1.0 | 4.0 | 0.07 | 0.16 | 0.16 | 86 | 1004.1 |
| 20260505092613 | 62 | 174 | 3.0 | 7.0 | 0.00 | 0.15 | 0.15 | 83 | 1003.9 |
| 20260505092112 | 62 | 197 | 5.0 | 10.0 | 0.00 | 0.15 | 0.15 | 83 | 1003.7 |
| 20260505091608 | 58 | 149 | 4.0 | 13.0 | 0.00 | 0.15 | 0.15 | 99 | 1003.7 |
| 20260505091106 | 58 | 142 | 3.0 | 7.0 | 0.00 | 0.15 | 0.15 | 99 | 1003.7 |
| 20260505090604 | 58 | 141 | 1.0 | 6.0 | 0.00 | 0.15 | 0.15 | 99 | 1003.6 |
| 20260505085559 | 58 | 130 | 2.0 | 10.0 | 0.05 | 0.15 | 0.15 | 99 | 1002.4 |
| 20260505085057 | 58 | 198 | 6.0 | 8.0 | 0.05 | 0.15 | 0.15 | 99 | 1002.6 |
| 20260505084555 | 59 | 151 | 7.0 | 15.0 | 0.00 | 0.14 | 0.14 | 99 | 1002.3 |
| 20260505084053 | 59 | 172 | 6.0 | 14.0 | 0.00 | 0.14 | 0.14 | 99 | 1003.1 |
| 20260505083549 | 59 | 205 | 5.0 | 9.0 | 0.07 | 0.14 | 0.14 | 99 | 1004.0 |
| 20260505083046 | 60 | 129 | 4.0 | 14.0 | 0.07 | 0.14 | 0.14 | 99 | 1004.2 |
| 20260505082542 | 60 | 232 | 5.0 | 10.0 | 0.07 | 0.13 | 0.13 | 99 | 1004.9 |
| 20260505082039 | 60 | 243 | 3.0 | 6.0 | 0.00 | 0.12 | 0.12 | 99 | 1005.3 |
| 20260505081535 | 60 | 223 | 5.0 | 9.0 | 0.05 | 0.12 | 0.12 | 99 | 1005.4 |
| 20260505081032 | 60 | 202 | 6.0 | 10.0 | 0.07 | 0.11 | 0.11 | 99 | 1005.1 |
| 20260505080529 | 60 | 240 | 4.0 | 10.0 | 0.12 | 0.11 | 0.11 | 98 | 1005.3 |
| 20260505080026 | 60 | 251 | 6.0 | 11.0 | 0.17 | 0.10 | 0.10 | 97 | 1005.4 |
| 20260505075521 | 60 | 247 | 9.0 | 13.0 | 0.19 | 0.09 | 0.09 | 96 | 1005.2 |
| 20260505075018 | 61 | 212 | 5.0 | 18.0 | 0.19 | 0.07 | 0.07 | 94 | 1004.9 |
| 20260505074516 | 61 | 217 | 8.0 | 15.0 | 0.12 | 0.05 | 0.05 | 93 | 1004.8 |
| 20260505074013 | 61 | 280 | 8.0 | 15.0 | 0.12 | 0.04 | 0.04 | 92 | 1004.8 |
| 20260505073510 | 61 | 237 | 5.0 | 8.0 | 0.07 | 0.03 | 0.03 | 91 | 1005.1 |
| 20260505073008 | 62 | 198 | 5.0 | 10.0 | 0.05 | 0.02 | 0.02 | 89 | 1005.2 |
| 20260505072504 | 63 | 250 | 3.0 | 7.0 | 0.07 | 0.01 | 0.01 | 87 | 1005.1 |
| 20260505072000 | 63 | 227 | 6.0 | 7.0 | 0.07 | 0.01 | 0.01 | 84 | 1004.9 |
| 20260505071455 | 64 | 167 | 5.0 | 10.0 | 0.00 | 0.00 | 0.00 | 82 | 1004.9 |
| 20260505070954 | 64 | 190 | 4.0 | 11.0 | 0.00 | 0.00 | 0.00 | 80 | 1005.0 |
| 20260505070450 | 64 | 230 | 2.0 | 4.0 | 0.00 | 0.00 | 0.00 | 79 | 1005.0 |
| 20260505065946 | 65 | 187 | 2.0 | 4.0 | 0.00 | 0.00 | 0.00 | 77 | 1004.9 |
| 20260505065443 | 65 | 145 | 4.0 | 8.0 | 0.00 | 0.00 | 0.00 | 76 | 1004.5 |
| 20260505064939 | 65 | 201 | 3.0 | 9.0 | 0.00 | 0.00 | 0.00 | 75 | 1004.7 |
| 20260505064436 | 65 | 205 | 1.0 | 4.0 | 0.00 | 0.00 | 0.00 | 75 | 1004.7 |
| 20260505063935 | 65 | 148 | 3.0 | 8.0 | 0.00 | 0.00 | 0.00 | 75 | 1004.6 |
| 20260505063431 | 65 | 224 | 2.0 | 11.0 | 0.00 | 0.00 | 0.00 | 75 | 1004.8 |
| 20260505062928 | 65 | 186 | 2.0 | 9.0 | 0.00 | 0.00 | 0.00 | 75 | 1004.9 |
| 20260505062425 | 65 | 133 | 1.0 | 8.0 | 0.00 | 0.00 | 0.00 | 75 | 1005.1 |
| 20260505061921 | 65 | 173 | 3.0 | 6.0 | 0.00 | 0.00 | 0.00 | 75 | 1005.0 |
| 20260505061420 | 65 | 136 | 2.0 | 7.0 | 0.00 | 0.00 | 0.00 | 75 | 1005.1 |
| 20260505060917 | 65 | 166 | 3.0 | 7.0 | 0.00 | 0.00 | 0.00 | 75 | 1005.1 |
| 20260505060414 | 65 | 231 | 4.0 | 8.0 | 0.00 | 0.00 | 0.00 | 75 | 1005.2 |
| 20260505055910 | 65 | 189 | 3.0 | 6.0 | 0.00 | 0.00 | 0.00 | 75 | 1005.3 |
| 20260505055406 | 65 | 167 | 2.0 | 3.0 | 0.00 | 0.00 | 0.00 | 75 | 1004.9 |
| 20260505054903 | 65 | 207 | 2.0 | 6.0 | 0.00 | 0.00 | 0.00 | 75 | 1005.2 |
| 20260505054400 | 65 | 179 | 3.0 | 4.0 | 0.00 | 0.00 | 0.00 | 75 | 1005.1 |
| 20260505053859 | 65 | 145 | 1.0 | 4.0 | 0.00 | 0.00 | 0.00 | 75 | 1005.1 |
| 20260505053355 | 65 | 146 | 4.0 | 7.0 | 0.00 | 0.00 | 0.00 | 74 | 1005.2 |
| 20260505052852 | 65 | 149 | 2.0 | 7.0 | 0.00 | 0.00 | 0.00 | 74 | 1004.9 |
| 20260505052349 | 65 | 141 | 5.0 | 7.0 | 0.00 | 0.00 | 0.00 | 74 | 1005.1 |
| 20260505051846 | 65 | 133 | 3.0 | 9.0 | 0.00 | 0.00 | 0.00 | 74 | 1005.1 |
| 20260505051343 | 65 | 172 | 3.0 | 6.0 | 0.00 | 0.00 | 0.00 | 75 | 1005.2 |
| 20260505050841 | 65 | 173 | 3.0 | 6.0 | 0.00 | 0.00 | 0.00 | 74 | 1005.0 |
| 20260505050340 | 65 | 199 | 3.0 | 6.0 | 0.00 | 0.00 | 0.00 | 74 | 1005.3 |
| 20260505041307 | 66 | 173 | 1.0 | 6.0 | 0.00 | 0.00 | 0.00 | 71 | 1005.8 |
| 20260505040804 | 67 | 173 | 4.0 | 4.0 | 0.00 | 0.00 | 0.00 | 70 | 1005.8 |
| 20260505040302 | 67 | 160 | 3.0 | 4.0 | 0.00 | 0.00 | 0.00 | 70 | 1006.0 |
| 20260505035758 | 67 | 159 | 2.0 | 3.0 | 0.00 | 0.00 | 0.00 | 70 | 1006.1 |
| 20260505035254 | 67 | 149 | 1.0 | 3.0 | 0.00 | 0.00 | 0.00 | 70 | 1006.0 |
| 20260505034751 | 67 | 149 | 5.0 | 8.0 | 0.00 | 0.00 | 0.00 | 69 | 1006.0 |
| 20260505034248 | 67 | 102 | 2.0 | 3.0 | 0.00 | 0.00 | 0.00 | 69 | 1006.2 |
| 20260505033744 | 67 | 145 | 1.0 | 3.0 | 0.00 | 0.00 | 0.00 | 69 | 1006.4 |
| 20260505033242 | 67 | 204 | 2.0 | 4.0 | 0.00 | 0.00 | 0.00 | 69 | 1006.2 |
| 20260505032740 | 67 | 149 | 2.0 | 7.0 | 0.00 | 0.00 | 0.00 | 69 | 1006.3 |
| 20260505032235 | 68 | 121 | 1.0 | 4.0 | 0.00 | 0.00 | 0.00 | 69 | 1006.4 |
| 20260505031733 | 68 | 156 | 1.0 | 4.0 | 0.00 | 0.00 | 0.00 | 68 | 1006.3 |
| 20260505031229 | 68 | 183 | 1.0 | 4.0 | 0.00 | 0.00 | 0.00 | 69 | 1006.3 |
| 20260505030726 | 68 | 165 | 1.0 | 3.0 | 0.00 | 0.00 | 0.00 | 69 | 1006.2 |
| 20260505030222 | 68 | 140 | 0.0 | 2.0 | 0.00 | 0.00 | 0.00 | 69 | 1006.4 |
| 20260505025718 | 68 | 143 | 0.0 | 3.0 | 0.00 | 0.00 | 0.00 | 69 | 1006.4 |
| 20260505025217 | 68 | 191 | 1.0 | 7.0 | 0.00 | 0.00 | 0.00 | 69 | 1006.4 |
| 20260505024715 | 68 | 170 | 1.0 | 4.0 | 0.00 | 0.00 | 0.00 | 69 | 1006.3 |
| 20260505024211 | 68 | 147 | 0.0 | 4.0 | 0.00 | 0.00 | 0.00 | 69 | 1006.3 |
| 20260505023709 | 68 | 207 | 1.0 | 3.0 | 0.00 | 0.00 | 0.00 | 69 | 1006.2 |
| 20260505023206 | 68 | 214 | 2.0 | 4.0 | 0.00 | 0.00 | 0.00 | 69 | 1006.3 |
| 20260505022704 | 68 | 165 | 1.0 | 4.0 | 0.00 | 0.00 | 0.00 | 70 | 1006.2 |
| 20260505022200 | 68 | 149 | 0.0 | 4.0 | 0.00 | 0.00 | 0.00 | 69 | 1006.0 |
| 20260505021657 | 68 | 153 | 1.0 | 2.0 | 0.00 | 0.00 | 0.00 | 68 | 1005.9 |
| 20260505021154 | 69 | 245 | 1.0 | 3.0 | 0.00 | 0.00 | 0.00 | 68 | 1005.9 |
| 20260505020649 | 69 | 175 | 0.0 | 3.0 | 0.00 | 0.00 | 0.00 | 67 | 1005.6 |
| 20260505020145 | 69 | 196 | 0.0 | 1.0 | 0.00 | 0.00 | 0.00 | 67 | 1005.8 |
| 20260505015643 | 69 | 181 | 1.0 | 2.0 | 0.00 | 0.00 | 0.00 | 67 | 1005.9 |
| 20260505015139 | 69 | 166 | 0.0 | 2.0 | 0.00 | 0.00 | 0.00 | 66 | 1005.6 |
| 20260505014636 | 69 | 164 | 0.0 | 0.0 | 0.00 | 0.00 | 0.00 | 65 | 1005.4 |
| 20260505014133 | 70 | 169 | 0.0 | 1.0 | 0.00 | 0.00 | 0.00 | 65 | 1005.6 |
| 20260505013631 | 70 | 172 | 1.0 | 2.0 | 0.00 | 0.00 | 0.00 | 64 | 1005.4 |
| 20260505013128 | 70 | 173 | 0.0 | 0.0 | 0.00 | 0.00 | 0.00 | 64 | 1005.3 |
| 20260505012626 | 70 | 154 | 1.0 | 3.0 | 0.00 | 0.00 | 0.00 | 63 | 1005.2 |
| 20260505012122 | 70 | 166 | 0.0 | 0.0 | 0.00 | 0.00 | 0.00 | 63 | 1005.1 |
| 20260505011618 | 70 | 168 | 0.0 | 0.0 | 0.00 | 0.00 | 0.00 | 64 | 1005.2 |
| 20260505011116 | 70 | 160 | 0.0 | 0.0 | 0.00 | 0.00 | 0.00 | 62 | 1005.0 |
| 20260505010611 | 71 | 164 | 0.0 | 1.0 | 0.00 | 0.00 | 0.00 | 62 | 1004.8 |
| 20260505010108 | 71 | 139 | 1.0 | 2.0 | 0.00 | 0.00 | 0.00 | 62 | 1004.9 |
| 20260505005604 | 71 | 161 | 0.0 | 2.0 | 0.00 | 0.00 | 0.00 | 61 | 1004.9 |
| 20260505005101 | 71 | 157 | 0.0 | 2.0 | 0.00 | 0.00 | 0.00 | 61 | 1004.8 |
| 20260505004558 | 72 | 154 | 0.0 | 2.0 | 0.00 | 0.00 | 0.00 | 60 | 1004.8 |
| 20260505004055 | 72 | 245 | 2.0 | 3.0 | 0.00 | 0.00 | 0.00 | 60 | 1004.8 |
| 20260505003552 | 72 | 166 | 0.0 | 4.0 | 0.00 | 0.00 | 0.00 | 58 | 1004.8 |
| 20260505003049 | 73 | 185 | 2.0 | 4.0 | 0.00 | 0.00 | 0.00 | 58 | 1004.9 |
| 20260505002544 | 73 | 209 | 1.0 | 4.0 | 0.00 | 0.00 | 0.00 | 58 | 1004.8 |
| 20260505002043 | 73 | 180 | 1.0 | 3.0 | 0.00 | 0.00 | 0.00 | 56 | 1004.7 |
| 20260505001540 | 73 | 185 | 2.0 | 4.0 | 0.00 | 0.00 | 0.00 | 56 | 1004.7 |
| 20260505001037 | 74 | 218 | 4.0 | 7.0 | 0.00 | 0.00 | 0.00 | 55 | 1004.7 |
| 20260505000535 | 74 | 200 | 0.0 | 4.0 | 0.00 | 0.00 | 0.00 | 55 | 1004.7 |
| 20260505000032 | 74 | 169 | 3.0 | 8.0 | 0.00 | 0.00 | 0.00 | 54 | 1004.6 |
| 20260504235529 | 75 | 161 | 2.0 | 6.0 | 0.00 | 0.00 | 0.00 | 54 | 1004.6 |
| 20260504235025 | 75 | 189 | 2.0 | 6.0 | 0.00 | 0.00 | 0.00 | 53 | 1004.6 |
| 20260504234522 | 76 | 133 | 3.0 | 6.0 | 0.00 | 0.00 | 0.00 | 53 | 1004.6 |
| 20260504234019 | 76 | 208 | 2.0 | 7.0 | 0.00 | 0.00 | 0.00 | 52 | 1004.4 |
| 20260504233514 | 77 | 215 | 3.0 | 8.0 | 0.00 | 0.00 | 0.00 | 51 | 1004.5 |
| 20260504233012 | 77 | 243 | 2.0 | 4.0 | 0.00 | 0.00 | 0.00 | 51 | 1004.5 |
| 20260504232509 | 77 | 181 | 1.0 | 4.0 | 0.00 | 0.00 | 0.00 | 51 | 1004.5 |
| 20260504232007 | 78 | 171 | 4.0 | 8.0 | 0.00 | 0.00 | 0.00 | 48 | 1004.4 |
| 20260504231503 | 78 | 148 | 3.0 | 7.0 | 0.00 | 0.00 | 0.00 | 48 | 1004.6 |
| 20260504230959 | 78 | 260 | 4.0 | 7.0 | 0.00 | 0.00 | 0.00 | 50 | 1004.2 |
| 20260504230455 | 78 | 163 | 4.0 | 10.0 | 0.00 | 0.00 | 0.00 | 49 | 1004.4 |
| 20260504225955 | 78 | 121 | 6.0 | 11.0 | 0.00 | 0.00 | 0.00 | 48 | 1004.4 |
| 20260504225451 | 78 | 183 | 10.0 | 14.0 | 0.00 | 0.00 | 0.00 | 47 | 1004.3 |
| 20260504224948 | 78 | 287 | 1.0 | 7.0 | 0.00 | 0.00 | 0.00 | 50 | 1004.4 |
| 20260504224444 | 78 | 197 | 6.0 | 10.0 | 0.00 | 0.00 | 0.00 | 50 | 1004.5 |
| 20260504223942 | 79 | 162 | 5.0 | 13.0 | 0.00 | 0.00 | 0.00 | 49 | 1004.5 |
| 20260504223438 | 79 | 200 | 2.0 | 8.0 | 0.00 | 0.00 | 0.00 | 49 | 1004.5 |
| 20260504222933 | 79 | 141 | 2.0 | 11.0 | 0.00 | 0.00 | 0.00 | 49 | 1004.4 |
| 20260504222431 | 79 | 180 | 8.0 | 21.0 | 0.00 | 0.00 | 0.00 | 48 | 1004.4 |
| 20260504221929 | 79 | 213 | 3.0 | 9.0 | 0.00 | 0.00 | 0.00 | 49 | 1004.5 |
| 20260504221425 | 80 | 175 | 2.0 | 9.0 | 0.00 | 0.00 | 0.00 | 50 | 1004.6 |
| 20260504220923 | 79 | 221 | 5.0 | 13.0 | 0.00 | 0.00 | 0.00 | 50 | 1004.5 |
| 20260504220419 | 80 | 250 | 5.0 | 17.0 | 0.00 | 0.00 | 0.00 | 48 | 1004.5 |
| 20260504215916 | 79 | 203 | 4.0 | 9.0 | 0.00 | 0.00 | 0.00 | 49 | 1004.8 |
| 20260504215413 | 79 | 238 | 7.0 | 15.0 | 0.00 | 0.00 | 0.00 | 47 | 1004.7 |
| 20260504214909 | 80 | 261 | 8.0 | 11.0 | 0.00 | 0.00 | 0.00 | 49 | 1004.7 |
| 20260504214406 | 80 | 179 | 7.0 | 16.0 | 0.00 | 0.00 | 0.00 | 49 | 1004.7 |
| 20260504213903 | 79 | 253 | 6.0 | 9.0 | 0.00 | 0.00 | 0.00 | 49 | 1004.7 |
| 20260504213358 | 79 | 189 | 4.0 | 13.0 | 0.00 | 0.00 | 0.00 | 49 | 1004.6 |
| 20260504212856 | 79 | 209 | 4.0 | 9.0 | 0.00 | 0.00 | 0.00 | 50 | 1004.8 |
| 20260504212352 | 79 | 211 | 9.0 | 11.0 | 0.00 | 0.00 | 0.00 | 49 | 1004.8 |
| 20260504211850 | 78 | 246 | 5.0 | 13.0 | 0.00 | 0.00 | 0.00 | 51 | 1004.8 |
| 20260504211346 | 80 | 134 | 5.0 | 11.0 | 0.00 | 0.00 | 0.00 | 49 | 1004.8 |
| 20260504210843 | 79 | 191 | 7.0 | 9.0 | 0.00 | 0.00 | 0.00 | 49 | 1004.9 |
| 20260504210340 | 78 | 298 | 7.0 | 11.0 | 0.00 | 0.00 | 0.00 | 49 | 1005.0 |
| 20260504205837 | 78 | 225 | 8.0 | 15.0 | 0.00 | 0.00 | 0.00 | 50 | 1005.1 |
| 20260504205335 | 79 | 237 | 6.0 | 13.0 | 0.00 | 0.00 | 0.00 | 49 | 1005.1 |
| 20260504204833 | 79 | 106 | 4.0 | 16.0 | 0.00 | 0.00 | 0.00 | 49 | 1005.1 |
| 20260504204331 | 80 | 156 | 6.0 | 16.0 | 0.00 | 0.00 | 0.00 | 48 | 1005.1 |
| 20260504203830 | 80 | 247 | 4.0 | 8.0 | 0.00 | 0.00 | 0.00 | 51 | 1005.2 |
| 20260504203327 | 79 | 214 | 10.0 | 11.0 | 0.00 | 0.00 | 0.00 | 48 | 1005.2 |
| 20260504202822 | 79 | 266 | 11.0 | 16.0 | 0.00 | 0.00 | 0.00 | 48 | 1005.4 |
| 20260504202320 | 79 | 206 | 7.0 | 14.0 | 0.00 | 0.00 | 0.00 | 49 | 1005.7 |
| 20260504201816 | 79 | 216 | 12.0 | 19.0 | 0.00 | 0.00 | 0.00 | 48 | 1005.7 |
| 20260504201314 | 80 | 228 | 7.0 | 9.0 | 0.00 | 0.00 | 0.00 | 49 | 1005.6 |
| 20260504200811 | 79 | 236 | 9.0 | 14.0 | 0.00 | 0.00 | 0.00 | 50 | 1005.9 |
| 20260504200308 | 79 | 204 | 6.0 | 14.0 | 0.00 | 0.00 | 0.00 | 50 | 1005.9 |
| 20260504195804 | 78 | 237 | 5.0 | 10.0 | 0.00 | 0.00 | 0.00 | 49 | 1005.8 |
| 20260504195300 | 78 | 237 | 11.0 | 22.0 | 0.00 | 0.00 | 0.00 | 48 | 1006.0 |
| 20260504194757 | 79 | 234 | 9.0 | 11.0 | 0.00 | 0.00 | 0.00 | 49 | 1005.6 |
| 20260504194253 | 79 | 221 | 8.0 | 15.0 | 0.00 | 0.00 | 0.00 | 49 | 1006.2 |
| 20260504193749 | 79 | 217 | 8.0 | 17.0 | 0.00 | 0.00 | 0.00 | 49 | 1006.0 |
| 20260504193247 | 79 | 215 | 4.0 | 11.0 | 0.00 | 0.00 | 0.00 | 50 | 1005.9 |
| 20260504192745 | 79 | 183 | 9.0 | 13.0 | 0.00 | 0.00 | 0.00 | 48 | 1006.2 |
| 20260504192243 | 79 | 77 | 2.0 | 11.0 | 0.00 | 0.00 | 0.00 | 50 | 1006.0 |
| 20260504191741 | 78 | 236 | 9.0 | 14.0 | 0.00 | 0.00 | 0.00 | 49 | 1006.3 |
| 20260504191238 | 78 | 245 | 8.0 | 14.0 | 0.00 | 0.00 | 0.00 | 49 | 1005.9 |
| 20260504190733 | 79 | 139 | 6.0 | 15.0 | 0.00 | 0.00 | 0.00 | 51 | 1006.1 |
| 20260504190230 | 78 | 162 | 2.0 | 14.0 | 0.00 | 0.00 | 0.00 | 52 | 1006.1 |
| 20260504185726 | 78 | 144 | 2.0 | 15.0 | 0.00 | 0.00 | 0.00 | 53 | 1006.2 |
| 20260504185223 | 78 | 190 | 10.0 | 14.0 | 0.00 | 0.00 | 0.00 | 50 | 1006.1 |
| 20260504184719 | 78 | 263 | 9.0 | 10.0 | 0.00 | 0.00 | 0.00 | 50 | 1006.1 |
| 20260504184215 | 79 | 288 | 11.0 | 18.0 | 0.00 | 0.00 | 0.00 | 50 | 1006.2 |
| 20260504183711 | 79 | 218 | 6.0 | 14.0 | 0.00 | 0.00 | 0.00 | 49 | 1006.1 |
| 20260504183209 | 78 | 166 | 1.0 | 13.0 | 0.00 | 0.00 | 0.00 | 54 | 1006.1 |
| 20260504182707 | 78 | 254 | 10.0 | 16.0 | 0.00 | 0.00 | 0.00 | 50 | 1006.1 |
| 20260504182203 | 78 | 246 | 8.0 | 11.0 | 0.00 | 0.00 | 0.00 | 51 | 1006.2 |
| 20260504181701 | 79 | 242 | 5.0 | 14.0 | 0.00 | 0.00 | 0.00 | 52 | 1006.1 |
| 20260504181158 | 78 | 171 | 6.0 | 13.0 | 0.00 | 0.00 | 0.00 | 51 | 1006.2 |
| 20260504180657 | 79 | 260 | 9.0 | 10.0 | 0.00 | 0.00 | 0.00 | 49 | 1006.2 |
| 20260504180155 | 78 | 143 | 6.0 | 13.0 | 0.00 | 0.00 | 0.00 | 52 | 1006.1 |
| 20260504175652 | 78 | 259 | 7.0 | 15.0 | 0.00 | 0.00 | 0.00 | 51 | 1006.4 |
| 20260504175149 | 77 | 127 | 7.0 | 11.0 | 0.00 | 0.00 | 0.00 | 51 | 1006.3 |
| 20260504174647 | 78 | 145 | 5.0 | 16.0 | 0.00 | 0.00 | 0.00 | 51 | 1006.3 |
| 20260504174144 | 78 | 111 | 3.0 | 16.0 | 0.00 | 0.00 | 0.00 | 51 | 1006.3 |
| 20260504173641 | 78 | 215 | 11.0 | 15.0 | 0.00 | 0.00 | 0.00 | 50 | 1006.6 |
| 20260504173138 | 77 | 194 | 9.0 | 15.0 | 0.00 | 0.00 | 0.00 | 50 | 1006.6 |
| 20260504172635 | 77 | 236 | 10.0 | 14.0 | 0.00 | 0.00 | 0.00 | 51 | 1006.8 |
| 20260504172131 | 77 | 207 | 5.0 | 13.0 | 0.00 | 0.00 | 0.00 | 51 | 1006.5 |
| 20260504171628 | 77 | 264 | 5.0 | 8.0 | 0.00 | 0.00 | 0.00 | 51 | 1006.4 |
| 20260504171125 | 76 | 206 | 8.0 | 14.0 | 0.00 | 0.00 | 0.00 | 50 | 1006.6 |
| 20260504170621 | 76 | 254 | 13.0 | 17.0 | 0.00 | 0.00 | 0.00 | 50 | 1006.6 |
| 20260504170119 | 76 | 210 | 7.0 | 15.0 | 0.00 | 0.00 | 0.00 | 51 | 1006.6 |
| 20260504151004 | 73 | 176 | 5.0 | 15.0 | 0.00 | 0.00 | 0.00 | 53 | 1007.5 |
| 20260504150502 | 73 | 276 | 4.0 | 10.0 | 0.00 | 0.00 | 0.00 | 55 | 1007.4 |
| 20260504140927 | 69 | 139 | 6.0 | 9.0 | 0.00 | 0.00 | 0.00 | 55 | 1008.0 |
| 20260504140424 | 69 | 144 | 4.0 | 14.0 | 0.00 | 0.00 | 0.00 | 56 | 1007.9 |
| 20260504130349 | 65 | 234 | 5.0 | 17.0 | 0.00 | 0.00 | 0.00 | 59 | 1008.3 |
| 20260504120312 | 62 | 252 | 8.0 | 14.0 | 0.00 | 0.00 | 0.00 | 61 | 1008.7 |